Location: *
(43.0409°N, 0.1694°E)
Time: 11:37:36
(UTC+00:00)

CZ-2D R/B - Pass Details

Date: 03 October 2023
Orbit: 543 x 624 km, 98.0° (Epoch: 01 December)

Event Time Altitude Azimuth Distance (km) Brightness Sun altitude
Rises 04:39:52 0° 17° (NNE) 2,904 7.4 -15.1°
Reaches altitude 10° 04:42:06 10° 21° (NNE) 2,001 6.6 -14.7°
Maximum altitude 04:46:24 58° 101° (E) 733 4.2 -14.0°
Drops below altitude 10° 04:50:42 10° 181° (S) 1,998 6.1 -13.2°
Sets 04:52:55 0° 185° (S) 2,898 6.9 -12.8°
